Time,TemperatureF,DewpointF,PressureIn,WindDirection,WindDirectionDegrees,WindSpeedMPH,WindSpeedGustMPH,Humidity,HourlyPrecipIn,Conditions,Clouds,dailyrainin,SoftwareType,DateUTC
2013-02-16 00:00:00,17.1,9.3,30.39,NNW,338,0.0,0.0,71,0.00,OVC,OVC,0.00,WeatherDisplay:10.37,2013-02-16 06:00:00,
2013-02-16 00:05:00,17.1,9.3,30.38,NNW,337,2.3,2.3,71,0.00,OVC,OVC,0.00,WeatherDisplay:10.37,2013-02-16 06:05:00,
2013-02-16 00:10:00,17.0,9.2,30.38,NNW,337,2.3,2.3,71,0.00,OVC,OVC,0.00,WeatherDisplay:10.37,2013-02-16 06:10:00,
2013-02-16 00:16:00,17.0,9.2,30.39,WNW,300,2.3,2.3,71,0.00,OVC,OVC,0.00,WeatherDisplay:10.37,2013-02-16 06:16:00,
2013-02-16 00:21:00,16.9,9.1,30.39,WNW,300,3.5,3.5,71,0.00,OVC,OVC,0.00,WeatherDisplay:10.37,2013-02-16 06:21:00,
2013-02-16 00:26:00,16.9,9.1,30.39,WNW,300,0.0,0.0,71,0.00,OVC,OVC,0.00,WeatherDisplay:10.37,2013-02-16 06:26:00,
2013-02-16 00:31:00,16.8,9.0,30.39,NW,308,3.5,3.5,71,0.00,OVC,OVC,0.00,WeatherDisplay:10.37,2013-02-16 06:31:00,
2013-02-16 00:37:00,16.8,9.0,30.38,NNW,332,3.5,3.5,71,0.00,OVC,OVC,0.00,WeatherDisplay:10.37,2013-02-16 06:37:00,
2013-02-16 00:42:00,17.0,8.9,30.38,NW,325,2.3,2.3,70,0.00,OVC,OVC,0.00,WeatherDisplay:10.37,2013-02-16 06:42:00,
2013-02-16 00:47:00,16.9,8.8,30.38,NW,325,0.0,0.0,70,0.00,OVC,OVC,0.00,WeatherDisplay:10.37,2013-02-16 06:47:00,
2013-02-16 00:52:00,16.8,8.7,30.39,NW,325,0.0,0.0,70,0.00,OVC,OVC,0.00,WeatherDisplay:10.37,2013-02-16 06:52:00,
2013-02-16 00:58:00,16.6,8.5,30.39,NW,323,3.5,3.5,70,0.00,OVC,OVC,0.00,WeatherDisplay:10.37,2013-02-16 06:58:00,
2013-02-16 01:03:00,16.4,8.3,30.39,NW,324,2.3,2.3,70,0.00,OVC,OVC,0.00,WeatherDisplay:10.37,2013-02-16 07:03:00,
2013-02-16 01:08:00,16.4,8.3,30.38,WNW,290,2.3,2.3,70,0.00,OVC,OVC,0.00,WeatherDisplay:10.37,2013-02-16 07:08:00,
2013-02-16 01:14:00,16.4,8.3,30.38,NW,311,0.0,0.0,70,0.00,OVC,OVC,0.00,WeatherDisplay:10.37,2013-02-16 07:14:00,
2013-02-16 01:19:00,16.3,8.2,30.38,NW,313,2.3,2.3,70,0.00,OVC,OVC,0.00,WeatherDisplay:10.37,2013-02-16 07:19:00,
2013-02-16 01:24:00,16.2,7.8,30.38,NW,313,2.3,2.3,69,0.00,OVC,OVC,0.00,WeatherDisplay:10.37,2013-02-16 07:24:00,
2013-02-16 01:29:00,16.1,7.7,30.38,NW,313,0.0,0.0,69,0.00,OVC,OVC,0.00,WeatherDisplay:10.37,2013-02-16 07:29:00,
2013-02-16 01:35:00,15.9,7.8,30.38,NW,313,2.0,2.0,70,0.00,OVC,OVC,0.00,WeatherDisplay:10.37,2013-02-16 07:35:00,
2013-02-16 01:40:00,15.8,7.7,30.38,NW,313,0.0,0.0,70,0.00,OVC,OVC,0.00,WeatherDisplay:10.37,2013-02-16 07:40:00,
2013-02-16 01:45:00,15.7,7.6,30.37,NW,313,0.0,0.0,70,0.00,OVC,OVC,0.00,WeatherDisplay:10.37,2013-02-16 07:45:00,
2013-02-16 01:51:00,15.5,7.5,30.38,NW,313,2.0,2.0,70,0.00,OVC,OVC,0.00,WeatherDisplay:10.37,2013-02-16 07:51:00,
2013-02-16 01:56:00,15.4,7.4,30.37,NW,313,0.0,0.0,70,0.00,OVC,OVC,0.00,WeatherDisplay:10.37,2013-02-16 07:56:00,
2013-02-16 02:01:00,15.3,7.3,30.38,NW,313,2.3,0.0,70,0.00,OVC,OVC,0.00,WeatherDisplay:10.37,2013-02-16 08:01:00,
2013-02-16 02:06:00,15.2,7.5,30.37,NW,313,2.3,2.3,71,0.00,OVC,OVC,0.00,WeatherDisplay:10.37,2013-02-16 08:06:00,
2013-02-16 02:12:00,15.2,7.5,30.37,NW,311,3.5,3.5,71,0.00,OVC,OVC,0.00,WeatherDisplay:10.37,2013-02-16 08:12:00,
2013-02-16 02:17:00,15.1,7.4,30.37,NW,311,1.2,0.0,71,0.00,OVC,OVC,0.00,WeatherDisplay:10.37,2013-02-16 08:17:00,
2013-02-16 02:22:00,15.0,7.6,30.37,NW,310,0.0,0.0,72,0.00,OVC,OVC,0.00,WeatherDisplay:10.37,2013-02-16 08:22:00,
2013-02-16 02:28:00,14.9,7.5,30.37,NW,309,2.3,2.3,72,0.00,OVC,OVC,0.00,WeatherDisplay:10.37,2013-02-16 08:28:00,
2013-02-16 02:33:00,14.8,7.4,30.36,NW,310,1.2,1.2,72,0.00,OVC,OVC,0.00,WeatherDisplay:10.37,2013-02-16 08:33:00,
2013-02-16 02:38:00,14.7,7.3,30.37,NW,310,0.0,0.0,72,0.00,OVC,OVC,0.00,WeatherDisplay:10.37,2013-02-16 08:38:00,
2013-02-16 02:43:00,14.6,7.2,30.36,NW,310,0.0,0.0,72,0.00,OVC,OVC,0.00,WeatherDisplay:10.37,2013-02-16 08:43:00,
2013-02-16 02:48:00,14.4,7.0,30.36,NW,310,0.0,0.0,72,0.00,OVC,OVC,0.00,WeatherDisplay:10.37,2013-02-16 08:48:00,
2013-02-16 02:54:00,14.3,6.9,30.36,NW,310,2.0,2.0,72,0.00,OVC,OVC,0.00,WeatherDisplay:10.37,2013-02-16 08:54:00,
2013-02-16 02:59:00,14.3,6.9,30.36,NW,310,0.0,0.0,72,0.00,OVC,OVC,0.00,WeatherDisplay:10.37,2013-02-16 08:59:00,
2013-02-16 03:04:00,14.2,6.8,30.35,NW,310,0.0,0.0,72,0.00,OVC,OVC,0.00,WeatherDisplay:10.37,2013-02-16 09:04:00,
2013-02-16 03:09:00,14.1,6.7,30.35,NW,310,0.0,0.0,72,0.00,OVC,OVC,0.00,WeatherDisplay:10.37,2013-02-16 09:09:00,
2013-02-16 03:15:00,14.0,6.6,30.35,NW,310,0.0,0.0,72,0.00,OVC,OVC,0.00,WeatherDisplay:10.37,2013-02-16 09:15:00,
2013-02-16 03:20:00,13.9,6.5,30.35,NW,310,0.0,0.0,72,0.00,OVC,OVC,0.00,WeatherDisplay:10.37,2013-02-16 09:20:00,
2013-02-16 03:25:00,13.8,6.4,30.35,NW,310,0.0,0.0,72,0.00,OVC,OVC,0.00,WeatherDisplay:10.37,2013-02-16 09:25:00,
2013-02-16 03:30:00,13.7,6.6,30.34,NW,310,0.0,0.0,73,0.00,OVC,OVC,0.00,WeatherDisplay:10.37,2013-02-16 09:30:00,
2013-02-16 03:36:00,13.7,6.6,30.35,NW,310,0.0,0.0,73,0.00,OVC,OVC,0.00,WeatherDisplay:10.37,2013-02-16 09:36:00,
2013-02-16 03:41:00,13.5,6.5,30.35,NW,310,0.0,0.0,73,0.00,OVC,OVC,0.00,WeatherDisplay:10.37,2013-02-16 09:41:00,
2013-02-16 03:46:00,13.4,6.4,30.35,NW,310,0.0,0.0,73,0.00,OVC,OVC,0.00,WeatherDisplay:10.37,2013-02-16 09:46:00,
2013-02-16 03:52:00,13.5,6.5,30.35,NW,310,2.3,2.3,73,0.00,OVC,OVC,0.00,WeatherDisplay:10.37,2013-02-16 09:52:00,
2013-02-16 03:57:00,13.4,6.4,30.35,NW,310,0.0,0.0,73,0.00,OVC,OVC,0.00,WeatherDisplay:10.37,2013-02-16 09:57:00,
2013-02-16 04:02:00,13.2,6.2,30.34,NW,310,0.0,0.0,73,0.00,OVC,OVC,0.00,WeatherDisplay:10.37,2013-02-16 10:02:00,
2013-02-16 04:07:00,13.0,6.0,30.34,NW,310,0.0,0.0,73,0.00,OVC,OVC,0.00,WeatherDisplay:10.37,2013-02-16 10:07:00,
2013-02-16 04:13:00,12.8,5.8,30.34,NW,310,0.0,0.0,73,0.00,OVC,OVC,0.00,WeatherDisplay:10.37,2013-02-16 10:13:00,
2013-02-16 04:18:00,12.6,5.6,30.34,NW,310,0.0,0.0,73,0.00,OVC,OVC,0.00,WeatherDisplay:10.37,2013-02-16 10:18:00,
2013-02-16 04:23:00,12.4,5.4,30.34,NW,310,0.0,0.0,73,0.00,OVC,OVC,0.00,WeatherDisplay:10.37,2013-02-16 10:23:00,
2013-02-16 04:28:00,12.3,5.6,30.34,NW,310,0.0,0.0,74,0.00,OVC,OVC,0.00,WeatherDisplay:10.37,2013-02-16 10:28:00,
2013-02-16 04:33:00,12.3,5.6,30.34,NW,310,0.0,0.0,74,0.00,OVC,OVC,0.00,WeatherDisplay:10.37,2013-02-16 10:33:00,
2013-02-16 04:39:00,12.4,5.7,30.35,NW,310,0.0,0.0,74,0.00,OVC,OVC,0.00,WeatherDisplay:10.37,2013-02-16 10:39:00,
2013-02-16 04:44:00,12.5,6.1,30.34,NW,310,0.0,0.0,75,0.00,OVC,OVC,0.00,WeatherDisplay:10.37,2013-02-16 10:44:00,
2013-02-16 04:49:00,12.5,6.1,30.35,NW,310,0.0,0.0,75,0.00,OVC,OVC,0.00,WeatherDisplay:10.37,2013-02-16 10:49:00,
2013-02-16 04:54:00,12.4,6.0,30.34,NW,310,0.0,0.0,75,0.00,OVC,OVC,0.00,WeatherDisplay:10.37,2013-02-16 10:54:00,
2013-02-16 05:00:00,12.2,5.8,30.34,NW,310,0.0,0.0,75,0.00,OVC,OVC,0.00,WeatherDisplay:10.37,2013-02-16 11:00:00,
2013-02-16 05:05:00,12.1,5.7,30.34,NW,310,1.2,0.0,75,0.00,OVC,OVC,0.00,WeatherDisplay:10.37,2013-02-16 11:05:00,
2013-02-16 05:10:00,12.1,5.7,30.34,NW,310,0.0,0.0,75,0.00,OVC,OVC,0.00,WeatherDisplay:10.37,2013-02-16 11:10:00,
2013-02-16 05:15:00,11.9,5.5,30.34,NW,310,0.0,0.0,75,0.00,OVC,OVC,0.00,WeatherDisplay:10.37,2013-02-16 11:15:00,
2013-02-16 05:21:00,11.7,5.3,30.34,NW,310,0.0,0.0,75,0.00,OVC,OVC,0.00,WeatherDisplay:10.37,2013-02-16 11:21:00,
2013-02-16 05:26:00,11.6,5.2,30.34,NW,310,0.0,0.0,75,0.00,OVC,OVC,0.00,WeatherDisplay:10.37,2013-02-16 11:26:00,
2013-02-16 05:31:00,11.5,5.1,30.33,NW,310,0.0,0.0,75,0.00,OVC,OVC,0.00,WeatherDisplay:10.37,2013-02-16 11:31:00,
2013-02-16 05:36:00,11.4,5.3,30.34,NW,310,0.0,0.0,76,0.00,OVC,OVC,0.00,WeatherDisplay:10.37,2013-02-16 11:36:00,
2013-02-16 05:42:00,11.3,4.9,30.33,NW,310,0.0,0.0,75,0.00,OVC,OVC,0.00,WeatherDisplay:10.37,2013-02-16 11:42:00,
2013-02-16 05:47:00,11.2,5.1,30.34,NW,310,0.0,0.0,76,0.00,OVC,OVC,0.00,WeatherDisplay:10.37,2013-02-16 11:47:00,
2013-02-16 05:52:00,11.0,4.9,30.33,NW,310,0.0,0.0,76,0.00,OVC,OVC,0.00,WeatherDisplay:10.37,2013-02-16 11:52:00,
2013-02-16 05:57:00,10.9,4.8,30.33,NW,310,0.0,0.0,76,0.00,OVC,OVC,0.00,WeatherDisplay:10.37,2013-02-16 11:57:00,
2013-02-16 06:03:00,10.7,4.6,30.33,NW,310,0.0,0.0,76,0.00,OVC,OVC,0.00,WeatherDisplay:10.37,2013-02-16 12:03:00,
2013-02-16 06:08:00,10.7,4.6,30.33,NW,310,0.0,0.0,76,0.00,OVC,OVC,0.00,WeatherDisplay:10.37,2013-02-16 12:08:00,
2013-02-16 06:13:00,10.7,4.6,30.33,NW,310,0.0,0.0,76,0.00,OVC,OVC,0.00,WeatherDisplay:10.37,2013-02-16 12:13:00,
2013-02-16 06:18:00,10.8,4.7,30.33,NW,310,0.0,0.0,76,0.00,OVC,OVC,0.00,WeatherDisplay:10.37,2013-02-16 12:18:00,
2013-02-16 06:24:00,11.1,5.3,30.34,NW,310,0.0,0.0,77,0.00,OVC,OVC,0.00,WeatherDisplay:10.37,2013-02-16 12:24:00,
2013-02-16 06:29:00,11.2,5.4,30.33,NW,310,0.0,0.0,77,0.00,OVC,OVC,0.00,WeatherDisplay:10.37,2013-02-16 12:29:00,
2013-02-16 06:34:00,11.3,5.5,30.33,NW,310,1.2,1.2,77,0.00,OVC,OVC,0.00,WeatherDisplay:10.37,2013-02-16 12:34:00,
2013-02-16 06:40:00,11.3,5.5,30.33,NW,310,0.0,0.0,77,0.00,OVC,OVC,0.00,WeatherDisplay:10.37,2013-02-16 12:40:00,
2013-02-16 06:45:00,11.4,5.6,30.33,NW,310,0.0,0.0,77,0.00,OVC,OVC,0.00,WeatherDisplay:10.37,2013-02-16 12:45:00,
2013-02-16 06:50:00,11.6,5.8,30.33,NW,309,2.3,2.3,77,0.00,OVC,OVC,0.00,WeatherDisplay:10.37,2013-02-16 12:50:00,
2013-02-16 06:55:00,11.7,5.9,30.33,NW,309,0.0,0.0,77,0.00,OVC,OVC,0.00,WeatherDisplay:10.37,2013-02-16 12:55:00,
2013-02-16 07:00:00,11.8,6.0,30.34,NW,309,0.0,0.0,77,0.00,OVC,OVC,0.00,WeatherDisplay:10.37,2013-02-16 13:00:00,
2013-02-16 07:06:00,11.9,6.1,30.34,NW,309,1.2,1.2,77,0.00,OVC,OVC,0.00,WeatherDisplay:10.37,2013-02-16 13:06:00,
2013-02-16 07:11:00,12.0,6.2,30.34,NW,309,1.2,1.2,77,0.00,OVC,OVC,0.00,WeatherDisplay:10.37,2013-02-16 13:11:00,
2013-02-16 07:16:00,12.1,6.3,30.34,NW,309,2.3,0.0,77,0.00,OVC,OVC,0.00,WeatherDisplay:10.37,2013-02-16 13:16:00,
2013-02-16 07:21:00,12.2,6.4,30.34,NW,309,2.3,2.3,77,0.00,OVC,OVC,0.00,WeatherDisplay:10.37,2013-02-16 13:21:00,
2013-02-16 07:26:00,12.4,6.6,30.34,NW,309,1.2,1.2,77,0.00,OVC,OVC,0.00,WeatherDisplay:10.37,2013-02-16 13:26:00,
2013-02-16 07:31:00,12.6,6.8,30.34,NW,309,3.5,3.5,77,0.00,OVC,OVC,0.00,WeatherDisplay:10.37,2013-02-16 13:31:00,
2013-02-16 07:36:00,12.8,6.9,30.34,NW,309,0.0,0.0,77,0.00,OVC,OVC,0.00,WeatherDisplay:10.37,2013-02-16 13:36:00,
2013-02-16 07:42:00,13.1,7.2,30.34,NW,309,0.0,0.0,77,0.00,OVC,OVC,0.00,WeatherDisplay:10.37,2013-02-16 13:42:00,
2013-02-16 07:47:00,13.4,7.5,30.33,West,262,3.5,3.5,77,0.00,OVC,OVC,0.00,WeatherDisplay:10.37,2013-02-16 13:47:00,
2013-02-16 07:52:00,13.7,7.5,30.34,West,261,2.3,2.3,76,0.00,OVC,OVC,0.00,WeatherDisplay:10.37,2013-02-16 13:52:00,
2013-02-16 07:57:00,14.1,7.9,30.34,West,262,1.0,0.0,76,0.00,OVC,OVC,0.00,WeatherDisplay:10.37,2013-02-16 13:57:00,
2013-02-16 08:03:00,14.4,8.2,30.34,West,261,3.5,3.5,76,0.00,OVC,OVC,0.00,WeatherDisplay:10.37,2013-02-16 14:03:00,
2013-02-16 08:08:00,14.8,8.6,30.34,WSW,254,0.0,0.0,76,0.00,OVC,OVC,0.00,WeatherDisplay:10.37,2013-02-16 14:08:00,
2013-02-16 08:13:00,15.3,8.8,30.34,WSW,255,3.0,3.0,75,0.00,OVC,OVC,0.00,WeatherDisplay:10.37,2013-02-16 14:13:00,
2013-02-16 08:18:00,15.7,9.2,30.34,WSW,254,2.3,2.3,75,0.00,OVC,OVC,0.00,WeatherDisplay:10.37,2013-02-16 14:18:00,
2013-02-16 08:24:00,16.4,9.6,30.33,WSW,255,0.0,0.0,74,0.00,OVC,OVC,0.00,WeatherDisplay:10.37,2013-02-16 14:24:00,
2013-02-16 08:29:00,17.0,10.1,30.33,WSW,252,3.5,3.5,74,0.00,OVC,OVC,0.00,WeatherDisplay:10.37,2013-02-16 14:29:00,
2013-02-16 08:34:00,17.5,10.3,30.33,WSW,251,1.0,1.0,73,0.00,OVC,OVC,0.00,WeatherDisplay:10.37,2013-02-16 14:34:00,
2013-02-16 08:39:00,18.2,10.7,30.33,WSW,250,3.5,3.5,72,0.00,OVC,OVC,0.00,WeatherDisplay:10.37,2013-02-16 14:39:00,
2013-02-16 08:44:00,19.0,11.1,30.33,WSW,251,0.0,0.1,71,0.00,OVC,OVC,0.00,WeatherDisplay:10.37,2013-02-16 14:44:00,
2013-02-16 08:49:00,19.3,11.1,30.32,WSW,251,0.0,0.0,70,0.00,OVC,OVC,0.00,WeatherDisplay:10.37,2013-02-16 14:49:00,
2013-02-16 08:55:00,19.6,11.1,30.32,WSW,251,2.3,2.3,69,0.00,OVC,OVC,0.00,WeatherDisplay:10.37,2013-02-16 14:55:00,
2013-02-16 09:00:00,20.3,11.7,30.32,WSW,251,2.3,2.3,69,0.00,OVC,OVC,0.00,WeatherDisplay:10.37,2013-02-16 15:00:00,
2013-02-16 09:05:00,20.5,10.9,30.32,WSW,251,0.0,0.0,66,0.00,OVC,OVC,0.00,WeatherDisplay:10.37,2013-02-16 15:05:00,
2013-02-16 09:11:00,20.8,11.2,30.32,WSW,251,3.5,3.5,66,0.00,OVC,OVC,0.00,WeatherDisplay:10.37,2013-02-16 15:11:00,
2013-02-16 09:16:00,21.5,11.5,30.31,WSW,250,1.0,1.0,65,0.00,OVC,OVC,0.00,WeatherDisplay:10.37,2013-02-16 15:16:00,
2013-02-16 09:21:00,22.0,11.7,30.31,WSW,240,2.3,2.3,64,0.00,OVC,OVC,0.00,WeatherDisplay:10.37,2013-02-16 15:21:00,
2013-02-16 09:26:00,22.4,11.7,30.31,SW,215,3.5,3.5,63,0.00,OVC,OVC,0.00,WeatherDisplay:10.37,2013-02-16 15:26:00,
2013-02-16 09:32:00,22.4,11.0,30.31,SSE,165,3.5,3.5,61,0.00,OVC,OVC,0.00,WeatherDisplay:10.37,2013-02-16 15:32:00,
2013-02-16 09:37:00,22.8,11.3,30.31,SSW,193,2.3,0.0,61,0.00,OVC,OVC,0.00,WeatherDisplay:10.37,2013-02-16 15:37:00,
2013-02-16 09:42:00,23.6,12.1,30.31,SSW,193,2.3,0.0,61,0.00,OVC,OVC,0.00,WeatherDisplay:10.37,2013-02-16 15:42:00,
2013-02-16 09:47:00,24.0,13.9,30.31,SSW,193,3.5,3.5,65,0.00,OVC,OVC,0.00,WeatherDisplay:10.37,2013-02-16 15:47:00,
2013-02-16 09:52:00,24.5,11.8,30.31,SW,223,3.5,3.5,58,0.00,OVC,OVC,0.00,WeatherDisplay:10.37,2013-02-16 15:52:00,
2013-02-16 09:57:00,24.9,11.8,30.31,SW,222,3.5,3.5,57,0.00,OVC,OVC,0.00,WeatherDisplay:10.37,2013-02-16 15:57:00,
2013-02-16 10:03:00,25.0,11.1,30.31,SW,224,1.0,1.0,55,0.00,OVC,OVC,0.00,WeatherDisplay:10.37,2013-02-16 16:03:00,
2013-02-16 10:08:00,24.1,10.6,30.30,SSW,194,2.3,2.3,56,0.00,OVC,OVC,0.00,WeatherDisplay:10.37,2013-02-16 16:08:00,
2013-02-16 10:13:00,24.6,11.9,30.31,South,191,0.0,0.0,58,0.00,OVC,OVC,0.00,WeatherDisplay:10.37,2013-02-16 16:13:00,
2013-02-16 10:18:00,25.4,11.9,30.31,WSW,252,4.0,4.0,56,0.00,OVC,OVC,0.00,WeatherDisplay:10.37,2013-02-16 16:18:00,
2013-02-16 10:23:00,24.6,10.3,30.30,WNW,296,3.5,3.5,54,0.00,OVC,OVC,0.00,WeatherDisplay:10.37,2013-02-16 16:23:00,
2013-02-16 10:29:00,23.7,10.7,30.30,WNW,296,3.5,3.5,57,0.00,OVC,OVC,0.00,WeatherDisplay:10.37,2013-02-16 16:29:00,
2013-02-16 10:34:00,24.7,12.0,30.30,WNW,282,0.0,0.0,58,0.00,OVC,OVC,0.00,WeatherDisplay:10.37,2013-02-16 16:34:00,
2013-02-16 10:39:00,25.7,12.6,30.30,West,281,1.2,1.2,57,0.00,OVC,OVC,0.00,WeatherDisplay:10.37,2013-02-16 16:39:00,
2013-02-16 10:44:00,26.1,11.7,30.30,WSW,252,5.8,5.8,54,0.00,OVC,OVC,0.00,WeatherDisplay:10.37,2013-02-16 16:44:00,
2013-02-16 10:50:00,26.3,12.3,30.29,WSW,254,3.5,3.5,55,0.00,OVC,OVC,0.00,WeatherDisplay:10.37,2013-02-16 16:50:00,
2013-02-16 10:55:00,25.6,11.7,30.29,WNW,302,3.5,3.5,55,0.00,OVC,OVC,0.00,WeatherDisplay:10.37,2013-02-16 16:55:00,
2013-02-16 11:00:00,25.6,12.5,30.29,SW,235,3.5,0.0,57,0.00,OVC,OVC,0.00,WeatherDisplay:10.37,2013-02-16 17:00:00,
2013-02-16 11:05:00,26.7,13.1,30.29,SW,236,4.6,4.6,56,0.00,OVC,OVC,0.00,WeatherDisplay:10.37,2013-02-16 17:05:00,
2013-02-16 11:11:00,27.7,12.8,30.29,WNW,290,3.5,3.5,53,0.00,OVC,OVC,0.00,WeatherDisplay:10.37,2013-02-16 17:11:00,
2013-02-16 11:16:00,27.2,12.3,30.28,WNW,289,0.0,0.0,53,0.00,OVC,OVC,0.00,WeatherDisplay:10.37,2013-02-16 17:16:00,
2013-02-16 11:21:00,28.2,13.7,30.28,WSW,253,1.2,1.2,54,0.00,OVC,OVC,0.00,WeatherDisplay:10.37,2013-02-16 17:21:00,
2013-02-16 11:27:00,28.9,13.5,30.28,WSW,247,3.5,3.5,52,0.00,OVC,OVC,0.00,WeatherDisplay:10.37,2013-02-16 17:27:00,
2013-02-16 11:32:00,29.1,12.8,30.27,WNW,292,5.8,5.8,50,0.00,OVC,OVC,0.00,WeatherDisplay:10.37,2013-02-16 17:32:00,
2013-02-16 11:37:00,28.5,13.1,30.27,South,188,3.5,0.0,52,0.00,OVC,OVC,0.00,WeatherDisplay:10.37,2013-02-16 17:37:00,
2013-02-16 11:42:00,29.4,13.5,30.26,SW,233,3.5,3.5,51,0.00,OVC,OVC,0.00,WeatherDisplay:10.37,2013-02-16 17:42:00,
2013-02-16 11:47:00,30.0,13.1,30.26,West,265,3.5,3.5,49,0.00,OVC,OVC,0.00,WeatherDisplay:10.37,2013-02-16 17:47:00,
2013-02-16 11:53:00,30.6,13.2,30.25,WSW,253,3.5,3.5,48,0.00,OVC,OVC,0.00,WeatherDisplay:10.37,2013-02-16 17:53:00,
2013-02-16 11:58:00,30.5,13.1,30.25,South,190,3.5,3.5,48,0.00,OVC,OVC,0.00,WeatherDisplay:10.37,2013-02-16 17:58:00,
2013-02-16 12:03:00,31.0,13.6,30.25,SW,224,3.5,3.5,48,0.00,OVC,OVC,0.00,WeatherDisplay:10.37,2013-02-16 18:03:00,
2013-02-16 12:09:00,31.3,13.4,30.25,SSW,197,3.5,3.5,47,0.00,OVC,OVC,0.00,WeatherDisplay:10.37,2013-02-16 18:09:00,
2013-02-16 12:14:00,31.8,13.8,30.24,SSW,213,5.8,5.8,47,0.00,OVC,OVC,0.00,WeatherDisplay:10.37,2013-02-16 18:14:00,
2013-02-16 12:19:00,31.6,13.2,30.24,NW,326,2.3,2.3,46,0.00,OVC,OVC,0.00,WeatherDisplay:10.37,2013-02-16 18:19:00,
2013-02-16 12:24:00,32.0,13.5,30.24,SW,234,4.6,4.6,46,0.00,OVC,OVC,0.00,WeatherDisplay:10.37,2013-02-16 18:24:00,
2013-02-16 12:29:00,32.3,13.8,30.23,WSW,248,4.6,4.6,46,0.00,OVC,OVC,0.00,WeatherDisplay:10.37,2013-02-16 18:29:00,
2013-02-16 12:35:00,33.0,14.4,30.23,South,178,4.6,4.6,46,0.00,OVC,OVC,0.00,WeatherDisplay:10.37,2013-02-16 18:35:00,
2013-02-16 12:40:00,33.3,14.2,30.22,South,173,3.5,3.5,45,0.00,OVC,OVC,0.00,WeatherDisplay:10.37,2013-02-16 18:40:00,
2013-02-16 12:45:00,33.7,14.1,30.22,South,175,5.8,5.8,44,0.00,OVC,OVC,0.00,WeatherDisplay:10.37,2013-02-16 18:45:00,
2013-02-16 12:50:00,33.8,13.6,30.22,SSE,147,3.5,3.5,43,0.00,OVC,OVC,0.00,WeatherDisplay:10.37,2013-02-16 18:50:00,
2013-02-16 12:56:00,33.0,12.9,30.22,SW,219,1.2,0.0,43,0.00,OVC,OVC,0.00,WeatherDisplay:10.37,2013-02-16 18:56:00,
2013-02-16 13:01:00,32.4,13.4,30.22,SW,233,3.5,3.5,45,0.00,OVC,OVC,0.00,WeatherDisplay:10.37,2013-02-16 19:01:00,
2013-02-16 13:06:00,32.8,13.2,30.21,West,267,3.5,3.5,44,0.00,OVC,OVC,0.00,WeatherDisplay:10.37,2013-02-16 19:06:00,
2013-02-16 13:11:00,32.1,13.1,30.21,West,279,3.5,3.5,45,0.00,OVC,OVC,0.00,WeatherDisplay:10.37,2013-02-16 19:11:00,
2013-02-16 13:17:00,32.8,14.8,30.21,SSE,164,1.2,0.0,47,0.00,OVC,OVC,0.00,WeatherDisplay:10.37,2013-02-16 19:17:00,
2013-02-16 13:22:00,34.1,14.4,30.21,SW,216,3.0,3.0,44,0.00,OVC,OVC,0.00,WeatherDisplay:10.37,2013-02-16 19:22:00,
2013-02-16 13:27:00,34.0,13.3,30.21,West,277,3.5,3.5,42,0.00,OVC,OVC,0.00,WeatherDisplay:10.37,2013-02-16 19:27:00,
2013-02-16 13:32:00,34.1,13.9,30.20,SW,216,5.8,5.8,43,0.00,OVC,OVC,0.00,WeatherDisplay:10.37,2013-02-16 19:32:00,
2013-02-16 13:38:00,34.7,13.4,30.20,South,177,3.5,0.0,41,0.00,OVC,OVC,0.00,WeatherDisplay:10.37,2013-02-16 19:38:00,
2013-02-16 13:43:00,35.1,13.7,30.20,SW,225,3.5,3.8,41,0.00,OVC,OVC,0.00,WeatherDisplay:10.37,2013-02-16 19:43:00,
2013-02-16 13:48:00,34.8,13.5,30.20,SSW,205,3.5,3.5,41,0.00,OVC,OVC,0.00,WeatherDisplay:10.37,2013-02-16 19:48:00,
2013-02-16 13:53:00,35.3,13.3,30.19,South,170,3.5,3.5,40,0.00,OVC,OVC,0.00,WeatherDisplay:10.37,2013-02-16 19:53:00,
2013-02-16 13:58:00,34.7,12.2,30.19,WNW,296,5.8,5.8,39,0.00,OVC,OVC,0.00,WeatherDisplay:10.37,2013-02-16 19:58:00,
2013-02-16 14:04:00,34.4,13.1,30.19,WNW,296,0.0,0.5,41,0.00,OVC,OVC,0.00,WeatherDisplay:10.37,2013-02-16 20:04:00,
2013-02-16 14:09:00,34.4,12.5,30.19,WNW,287,4.6,4.6,40,0.00,OVC,OVC,0.00,WeatherDisplay:10.37,2013-02-16 20:09:00,
2013-02-16 14:14:00,35.1,12.6,30.19,SSE,153,5.8,5.8,39,0.00,OVC,OVC,0.00,WeatherDisplay:10.37,2013-02-16 20:14:00,
2013-02-16 14:19:00,35.4,12.3,30.18,NW,313,4.6,4.6,38,0.00,OVC,OVC,0.00,WeatherDisplay:10.37,2013-02-16 20:19:00,
2013-02-16 14:25:00,34.5,12.6,30.19,SW,226,6.9,6.9,40,0.00,OVC,OVC,0.00,WeatherDisplay:10.37,2013-02-16 20:25:00,
2013-02-16 14:30:00,35.5,12.4,30.18,South,170,2.3,0.0,38,0.00,OVC,OVC,0.00,WeatherDisplay:10.37,2013-02-16 20:30:00,
2013-02-16 14:35:00,36.3,11.9,30.18,South,173,1.2,0.0,36,0.00,OVC,OVC,0.00,WeatherDisplay:10.37,2013-02-16 20:35:00,
2013-02-16 14:41:00,37.0,12.5,30.18,SW,227,6.9,6.9,36,0.00,OVC,OVC,0.00,WeatherDisplay:10.37,2013-02-16 20:41:00,
2013-02-16 14:46:00,36.7,11.6,30.18,SW,230,4.6,4.6,35,0.00,OVC,OVC,0.00,WeatherDisplay:10.37,2013-02-16 20:46:00,
2013-02-16 14:51:00,35.8,12.0,30.17,NNW,331,3.0,3.0,37,0.00,OVC,OVC,0.00,WeatherDisplay:10.37,2013-02-16 20:51:00,
2013-02-16 14:56:00,35.7,12.5,30.17,South,178,1.0,1.6,38,0.00,OVC,OVC,0.00,WeatherDisplay:10.37,2013-02-16 20:56:00,
2013-02-16 15:01:00,36.3,11.9,30.17,South,180,2.3,2.3,36,0.00,OVC,OVC,0.00,WeatherDisplay:10.37,2013-02-16 21:01:00,
2013-02-16 15:07:00,36.5,11.4,30.17,West,264,2.3,0.0,35,0.00,OVC,OVC,0.00,WeatherDisplay:10.37,2013-02-16 21:07:00,
2013-02-16 15:12:00,35.9,10.9,30.17,SW,229,4.0,4.0,35,0.00,OVC,OVC,0.00,WeatherDisplay:10.37,2013-02-16 21:12:00,
2013-02-16 15:17:00,35.6,11.2,30.17,WSW,242,2.3,2.3,36,0.00,OVC,OVC,0.00,WeatherDisplay:10.37,2013-02-16 21:17:00,
2013-02-16 15:22:00,35.9,11.5,30.17,SW,227,2.3,2.3,36,0.00,OVC,OVC,0.00,WeatherDisplay:10.37,2013-02-16 21:22:00,
2013-02-16 15:27:00,36.0,11.6,30.17,WSW,240,3.5,3.8,36,0.00,OVC,OVC,0.00,WeatherDisplay:10.37,2013-02-16 21:27:00,
2013-02-16 15:32:00,35.9,12.1,30.17,SW,236,0.0,0.0,37,0.00,OVC,OVC,0.00,WeatherDisplay:10.37,2013-02-16 21:32:00,
2013-02-16 15:38:00,36.1,12.3,30.17,SSW,203,5.8,5.8,37,0.00,OVC,OVC,0.00,WeatherDisplay:10.37,2013-02-16 21:38:00,
2013-02-16 15:43:00,35.9,11.5,30.17,West,265,3.5,3.5,36,0.00,OVC,OVC,0.00,WeatherDisplay:10.37,2013-02-16 21:43:00,
2013-02-16 15:48:00,35.6,11.9,30.17,NNW,341,3.5,3.5,37,0.00,OVC,OVC,0.00,WeatherDisplay:10.37,2013-02-16 21:48:00,
2013-02-16 15:53:00,35.8,12.0,30.17,NNW,341,0.0,0.0,37,0.00,OVC,OVC,0.00,WeatherDisplay:10.37,2013-02-16 21:53:00,
2013-02-16 15:59:00,36.1,12.3,30.17,NNW,341,0.0,0.0,37,0.00,OVC,OVC,0.00,WeatherDisplay:10.37,2013-02-16 21:59:00,
2013-02-16 16:04:00,36.3,12.5,30.17,West,279,3.5,3.5,37,0.00,OVC,OVC,0.00,WeatherDisplay:10.37,2013-02-16 22:04:00,
2013-02-16 16:09:00,35.9,12.1,30.17,West,280,2.3,0.0,37,0.00,OVC,OVC,0.00,WeatherDisplay:10.37,2013-02-16 22:09:00,
2013-02-16 16:14:00,36.0,12.8,30.17,SSW,205,3.5,3.5,38,0.00,OVC,OVC,0.00,WeatherDisplay:10.37,2013-02-16 22:14:00,
2013-02-16 16:19:00,36.1,12.9,30.17,SSW,205,2.3,2.3,38,0.00,OVC,OVC,0.00,WeatherDisplay:10.37,2013-02-16 22:19:00,
2013-02-16 16:24:00,36.2,12.4,30.17,SSW,205,2.3,2.3,37,0.00,OVC,OVC,0.00,WeatherDisplay:10.37,2013-02-16 22:24:00,
2013-02-16 16:30:00,36.2,12.4,30.17,SSW,205,1.2,0.0,37,0.00,OVC,OVC,0.00,WeatherDisplay:10.37,2013-02-16 22:30:00,
2013-02-16 16:35:00,36.0,12.8,30.17,SSW,205,0.0,0.0,38,0.00,OVC,OVC,0.00,WeatherDisplay:10.37,2013-02-16 22:35:00,
2013-02-16 16:40:00,36.0,12.8,30.17,SSE,163,4.6,4.6,38,0.00,OVC,OVC,0.00,WeatherDisplay:10.37,2013-02-16 22:40:00,
2013-02-16 16:45:00,35.9,12.7,30.17,SSE,163,2.3,2.3,38,0.00,OVC,OVC,0.00,WeatherDisplay:10.37,2013-02-16 22:45:00,
2013-02-16 16:51:00,35.7,12.5,30.17,SSE,163,2.3,2.3,38,0.00,OVC,OVC,0.00,WeatherDisplay:10.37,2013-02-16 22:51:00,
2013-02-16 16:56:00,35.5,12.4,30.17,SSE,163,3.5,3.5,38,0.00,OVC,OVC,0.00,WeatherDisplay:10.37,2013-02-16 22:56:00,
2013-02-16 17:01:00,35.3,12.8,30.17,SSE,163,0.0,0.0,39,0.00,OVC,OVC,0.00,WeatherDisplay:10.37,2013-02-16 23:01:00,
2013-02-16 17:06:00,35.1,12.0,30.17,SSE,163,0.0,0.0,38,0.00,OVC,OVC,0.00,WeatherDisplay:10.37,2013-02-16 23:06:00,
2013-02-16 17:12:00,35.0,12.5,30.17,SSE,163,0.0,0.0,39,0.00,OVC,OVC,0.00,WeatherDisplay:10.37,2013-02-16 23:12:00,
2013-02-16 17:17:00,34.7,12.2,30.17,SSE,163,0.0,0.0,39,0.00,OVC,OVC,0.00,WeatherDisplay:10.37,2013-02-16 23:17:00,
2013-02-16 17:22:00,34.5,12.6,30.17,SSE,163,0.0,0.0,40,0.00,OVC,OVC,0.00,WeatherDisplay:10.37,2013-02-16 23:22:00,
2013-02-16 17:27:00,34.4,13.6,30.17,SSE,163,1.0,1.0,42,0.00,OVC,OVC,0.00,WeatherDisplay:10.37,2013-02-16 23:27:00,
2013-02-16 17:32:00,34.2,12.9,30.17,SSE,163,0.0,0.0,41,0.00,OVC,OVC,0.00,WeatherDisplay:10.37,2013-02-16 23:32:00,
2013-02-16 17:37:00,33.9,13.2,30.17,SSE,163,1.2,0.0,42,0.00,OVC,OVC,0.00,WeatherDisplay:10.37,2013-02-16 23:37:00,
2013-02-16 17:43:00,33.6,12.9,30.17,SSE,163,0.0,0.0,42,0.00,OVC,OVC,0.00,WeatherDisplay:10.37,2013-02-16 23:43:00,
2013-02-16 17:48:00,33.3,13.2,30.17,SSE,163,0.0,0.0,43,0.00,OVC,OVC,0.00,WeatherDisplay:10.37,2013-02-16 23:48:00,
2013-02-16 17:53:00,33.0,13.4,30.17,SSE,163,0.0,0.0,44,0.00,OVC,OVC,0.00,WeatherDisplay:10.37,2013-02-16 23:53:00,
2013-02-16 17:58:00,32.6,13.1,30.17,SSE,163,0.0,0.0,44,0.00,OVC,OVC,0.00,WeatherDisplay:10.37,2013-02-16 23:58:00,
2013-02-16 18:03:00,32.2,13.2,30.18,SSE,163,0.0,0.0,45,0.00,OVC,OVC,0.00,WeatherDisplay:10.37,2013-02-17 00:03:00,
2013-02-16 18:08:00,31.8,13.3,30.18,SSE,163,0.0,0.0,46,0.00,OVC,OVC,0.00,WeatherDisplay:10.37,2013-02-17 00:08:00,
2013-02-16 18:14:00,31.4,13.9,30.18,SSE,163,0.0,0.0,48,0.00,OVC,OVC,0.00,WeatherDisplay:10.37,2013-02-17 00:14:00,
2013-02-16 18:19:00,31.0,13.6,30.18,SSE,163,0.0,0.0,48,0.00,OVC,OVC,0.00,WeatherDisplay:10.37,2013-02-17 00:19:00,
2013-02-16 18:24:00,30.6,13.2,30.18,SSE,163,0.0,0.0,48,0.00,OVC,OVC,0.00,WeatherDisplay:10.37,2013-02-17 00:24:00,
2013-02-16 18:30:00,30.3,13.4,30.18,SSE,163,0.0,0.0,49,0.00,OVC,OVC,0.00,WeatherDisplay:10.37,2013-02-17 00:30:00,
2013-02-16 18:35:00,30.0,13.6,30.18,SSE,163,0.0,0.0,50,0.00,OVC,OVC,0.00,WeatherDisplay:10.37,2013-02-17 00:35:00,
2013-02-16 18:40:00,29.7,13.3,30.18,SSE,163,0.0,0.0,50,0.00,OVC,OVC,0.00,WeatherDisplay:10.37,2013-02-17 00:40:00,
2013-02-16 18:45:00,29.4,13.0,30.19,SSE,163,0.0,0.0,50,0.00,OVC,OVC,0.00,WeatherDisplay:10.37,2013-02-17 00:45:00,
2013-02-16 18:50:00,29.2,12.8,30.19,SSE,163,0.0,0.0,50,0.00,OVC,OVC,0.00,WeatherDisplay:10.37,2013-02-17 00:50:00,
2013-02-16 18:56:00,28.9,13.0,30.19,SSE,163,0.0,0.0,51,0.00,OVC,OVC,0.00,WeatherDisplay:10.37,2013-02-17 00:56:00,
2013-02-16 19:01:00,28.7,13.3,30.19,SSE,163,0.0,0.0,52,0.00,OVC,OVC,0.00,WeatherDisplay:10.37,2013-02-17 01:01:00,
2013-02-16 19:06:00,28.3,12.9,30.19,SSE,163,0.0,0.0,52,0.00,OVC,OVC,0.00,WeatherDisplay:10.37,2013-02-17 01:06:00,
2013-02-16 19:11:00,28.1,13.1,30.19,SSE,163,0.0,0.0,53,0.00,OVC,OVC,0.00,WeatherDisplay:10.37,2013-02-17 01:11:00,
2013-02-16 19:16:00,28.0,13.5,30.19,SSE,163,0.0,0.0,54,0.00,OVC,OVC,0.00,WeatherDisplay:10.37,2013-02-17 01:16:00,
2013-02-16 19:21:00,27.9,13.4,30.19,SSE,163,0.0,0.0,54,0.00,OVC,OVC,0.00,WeatherDisplay:10.37,2013-02-17 01:21:00,
2013-02-16 19:26:00,27.8,13.3,30.19,SSE,163,0.0,0.0,54,0.00,OVC,OVC,0.00,WeatherDisplay:10.37,2013-02-17 01:26:00,
2013-02-16 19:32:00,27.6,13.1,30.19,SSE,163,1.2,1.2,54,0.00,OVC,OVC,0.00,WeatherDisplay:10.37,2013-02-17 01:32:00,
2013-02-16 19:37:00,27.5,13.4,30.19,SSE,163,1.2,1.2,55,0.00,OVC,OVC,0.00,WeatherDisplay:10.37,2013-02-17 01:37:00,
2013-02-16 19:42:00,27.3,13.2,30.19,SSE,163,0.0,0.0,55,0.00,OVC,OVC,0.00,WeatherDisplay:10.37,2013-02-17 01:42:00,
2013-02-16 19:47:00,27.2,13.1,30.19,SSE,163,0.0,0.0,55,0.00,OVC,OVC,0.00,WeatherDisplay:10.37,2013-02-17 01:47:00,
2013-02-16 19:52:00,27.1,13.1,30.18,SSE,163,0.0,0.0,55,0.00,OVC,OVC,0.00,WeatherDisplay:10.37,2013-02-17 01:52:00,
2013-02-16 19:57:00,27.1,13.1,30.18,SSE,163,1.2,1.2,55,0.00,OVC,OVC,0.00,WeatherDisplay:10.37,2013-02-17 01:57:00,
2013-02-16 20:02:00,27.1,13.1,30.18,SSE,163,2.3,2.3,55,0.00,OVC,OVC,0.00,WeatherDisplay:10.37,2013-02-17 02:02:00,
2013-02-16 20:07:00,27.1,13.1,30.18,SSE,163,0.0,0.0,55,0.00,OVC,OVC,0.00,WeatherDisplay:10.37,2013-02-17 02:07:00,
2013-02-16 20:13:00,27.2,13.1,30.18,SSE,163,0.0,0.0,55,0.00,OVC,OVC,0.00,WeatherDisplay:10.37,2013-02-17 02:13:00,
2013-02-16 20:18:00,27.2,13.1,30.18,SSE,163,0.0,0.0,55,0.00,OVC,OVC,0.00,WeatherDisplay:10.37,2013-02-17 02:18:00,
2013-02-16 20:23:00,27.1,13.1,30.18,SSE,163,0.0,0.0,55,0.00,OVC,OVC,0.00,WeatherDisplay:10.37,2013-02-17 02:23:00,
2013-02-16 20:28:00,26.9,12.9,30.17,SSE,163,0.0,0.0,55,0.00,OVC,OVC,0.00,WeatherDisplay:10.37,2013-02-17 02:28:00,
2013-02-16 20:34:00,26.7,12.7,30.18,SSE,163,0.0,0.0,55,0.00,OVC,OVC,0.00,WeatherDisplay:10.37,2013-02-17 02:34:00,
2013-02-16 20:39:00,26.4,12.4,30.17,SSE,163,0.0,0.0,55,0.00,OVC,OVC,0.00,WeatherDisplay:10.37,2013-02-17 02:39:00,
2013-02-16 20:44:00,26.2,12.6,30.17,SSE,163,0.0,0.0,56,0.00,OVC,OVC,0.00,WeatherDisplay:10.37,2013-02-17 02:44:00,
2013-02-16 20:49:00,26.1,12.9,30.17,SSE,163,0.0,0.0,57,0.00,OVC,OVC,0.00,WeatherDisplay:10.37,2013-02-17 02:49:00,
2013-02-16 20:54:00,25.9,12.7,30.17,SSE,163,0.0,0.0,57,0.00,OVC,OVC,0.00,WeatherDisplay:10.37,2013-02-17 02:54:00,
2013-02-16 21:00:00,26.0,12.8,30.17,SSE,163,0.0,0.0,57,0.00,OVC,OVC,0.00,WeatherDisplay:10.37,2013-02-17 03:00:00,
2013-02-16 21:05:00,26.1,12.9,30.17,SSE,163,0.0,0.0,57,0.00,OVC,OVC,0.00,WeatherDisplay:10.37,2013-02-17 03:05:00,
2013-02-16 21:10:00,26.3,13.1,30.17,SSE,163,0.0,0.0,57,0.00,OVC,OVC,0.00,WeatherDisplay:10.37,2013-02-17 03:10:00,
2013-02-16 21:15:00,26.5,12.9,30.17,SSE,163,0.0,0.0,56,0.00,OVC,OVC,0.00,WeatherDisplay:10.37,2013-02-17 03:15:00,
2013-02-16 21:20:00,26.6,13.0,30.17,SSE,163,0.0,0.0,56,0.00,OVC,OVC,0.00,WeatherDisplay:10.37,2013-02-17 03:20:00,
2013-02-16 21:26:00,26.5,12.9,30.17,SSE,163,0.0,0.0,56,0.00,OVC,OVC,0.00,WeatherDisplay:10.37,2013-02-17 03:26:00,
2013-02-16 21:31:00,26.2,13.0,30.17,SSE,163,0.0,0.0,57,0.00,OVC,OVC,0.00,WeatherDisplay:10.37,2013-02-17 03:31:00,
2013-02-16 21:36:00,25.8,13.0,30.17,SSE,163,0.0,0.0,58,0.00,OVC,OVC,0.00,WeatherDisplay:10.37,2013-02-17 03:36:00,
2013-02-16 21:41:00,25.5,13.1,30.17,SSE,163,0.0,0.0,59,0.00,OVC,OVC,0.00,WeatherDisplay:10.37,2013-02-17 03:41:00,
2013-02-16 21:47:00,25.8,13.4,30.17,SSE,163,0.0,0.0,59,0.00,OVC,OVC,0.00,WeatherDisplay:10.37,2013-02-17 03:47:00,
2013-02-16 21:52:00,25.8,13.0,30.17,SSE,163,0.0,0.0,58,0.00,OVC,OVC,0.00,WeatherDisplay:10.37,2013-02-17 03:52:00,
2013-02-16 21:57:00,25.7,13.3,30.17,SSE,163,1.2,1.2,59,0.00,OVC,OVC,0.00,WeatherDisplay:10.37,2013-02-17 03:57:00,
2013-02-16 22:02:00,25.7,13.3,30.17,SSE,163,2.3,0.0,59,0.00,OVC,OVC,0.00,WeatherDisplay:10.37,2013-02-17 04:02:00,
2013-02-16 22:08:00,25.9,13.1,30.17,SSE,163,0.0,0.1,58,0.00,OVC,OVC,0.00,WeatherDisplay:10.37,2013-02-17 04:08:00,
2013-02-16 22:13:00,25.9,13.1,30.17,SSE,163,2.3,0.0,58,0.00,OVC,OVC,0.00,WeatherDisplay:10.37,2013-02-17 04:13:00,
2013-02-16 22:18:00,25.8,13.0,30.17,SSE,163,2.3,2.3,58,0.00,OVC,OVC,0.00,WeatherDisplay:10.37,2013-02-17 04:18:00,
2013-02-16 22:23:00,25.8,13.0,30.17,SE,124,4.6,4.6,58,0.00,OVC,OVC,0.00,WeatherDisplay:10.37,2013-02-17 04:23:00,
2013-02-16 22:29:00,26.0,13.2,30.17,SE,124,2.3,2.3,58,0.00,OVC,OVC,0.00,WeatherDisplay:10.37,2013-02-17 04:29:00,
2013-02-16 22:34:00,26.0,13.2,30.17,SE,124,2.3,2.3,58,0.00,OVC,OVC,0.00,WeatherDisplay:10.37,2013-02-17 04:34:00,
2013-02-16 22:39:00,26.0,13.2,30.16,SE,124,2.3,2.3,58,0.00,OVC,OVC,0.00,WeatherDisplay:10.37,2013-02-17 04:39:00,
2013-02-16 22:44:00,25.9,13.1,30.17,SE,124,2.3,2.3,58,0.00,OVC,OVC,0.00,WeatherDisplay:10.37,2013-02-17 04:44:00,
2013-02-16 22:50:00,25.8,13.4,30.17,SE,124,3.5,3.5,59,0.00,OVC,OVC,0.00,WeatherDisplay:10.37,2013-02-17 04:50:00,
2013-02-16 22:55:00,25.8,13.4,30.16,SE,124,3.5,3.5,59,0.00,OVC,OVC,0.00,WeatherDisplay:10.37,2013-02-17 04:55:00,
2013-02-16 23:00:00,25.8,13.4,30.16,SE,127,3.5,3.5,59,0.00,OVC,OVC,0.00,WeatherDisplay:10.37,2013-02-17 05:00:00,
2013-02-16 23:03:00,25.7,13.3,30.16,SE,130,3.5,3.5,59,0.00,OVC,OVC,0.00,WeatherDisplay:10.37,2013-02-17 05:03:00,
2013-02-16 23:08:00,25.6,13.2,30.16,SE,130,0.0,0.0,59,0.00,OVC,OVC,0.00,WeatherDisplay:10.37,2013-02-17 05:08:00,
2013-02-16 23:13:00,25.4,13.4,30.16,SE,130,2.0,2.0,60,0.00,OVC,OVC,0.00,WeatherDisplay:10.37,2013-02-17 05:13:00,
2013-02-16 23:18:00,25.2,13.2,30.16,SE,130,0.0,0.0,60,0.00,OVC,OVC,0.00,WeatherDisplay:10.37,2013-02-17 05:18:00,
2013-02-16 23:24:00,25.0,13.1,30.15,SE,130,0.0,0.0,60,0.00,OVC,OVC,0.00,WeatherDisplay:10.37,2013-02-17 05:24:00,
2013-02-16 23:29:00,24.8,13.2,30.15,SE,130,1.2,1.2,61,0.00,OVC,OVC,0.00,WeatherDisplay:10.37,2013-02-17 05:29:00,
2013-02-16 23:34:00,24.6,13.1,30.15,SE,130,0.0,0.0,61,0.00,OVC,OVC,0.00,WeatherDisplay:10.37,2013-02-17 05:34:00,
2013-02-16 23:41:00,24.4,13.2,30.16,SE,130,0.0,0.0,62,0.00,OVC,OVC,0.00,WeatherDisplay:10.37,2013-02-17 05:41:00,
2013-02-16 23:46:00,24.2,13.4,30.15,SE,130,3.5,3.5,63,0.00,OVC,OVC,0.00,WeatherDisplay:10.37,2013-02-17 05:46:00,
2013-02-16 23:51:00,24.3,13.5,30.15,SE,130,2.3,2.3,63,0.00,OVC,OVC,0.00,WeatherDisplay:10.37,2013-02-17 05:51:00,
2013-02-16 23:57:00,24.4,13.6,30.15,SE,130,3.5,3.5,63,0.00,OVC,OVC,0.00,WeatherDisplay:10.37,2013-02-17 05:57:00,